This demonstration page uses our WeatherBlox Daily Observations layout. Learn more.

40.92945, -100.16068

Hourly Observations for October 5, 2019

Temp ( °F °C ) Dew Point ( °F °C ) Humidity (%) Winds ( mph kmh ) Pressure ( in mb ) Visibility ( mi km ) Precip ( " mm )
12:15 am 00:15 Cloudy with Mist and Fog 55 12.5 55 12.5 100 100 SSE 22 35 29.83 1010 1.5 2.41401 0 0
12:35 am 00:35 Cloudy with Mist and Fog 55 12.8 55 12.8 100 100 SSE 22 35 29.82 1010 1 1.60934 0 0
12:55 am 00:55 Cloudy with Mist and Fog 56 13.5 56 13.5 100 100 SSE 17 28 29.82 1010 1 1.60934 0 0
1:15 am 01:15 Cloudy with Mist and Fog 58 14.2 58 14.2 100 100 S 23 37 29.81 1010 2.5 4.02335 0 0
1:35 am 01:35 Cloudy with Mist and Fog 58 14.7 58 14.7 100 100 S 17 28 29.81 1009 3 4.82802 0 0
1:55 am 01:55 Cloudy with Mist and Fog 59 15.1 59 15.1 100 100 S 21 33 29.79 1009 4 6.43736 0 0
2:15 am 02:15 Cloudy with Mist and Fog 60 15.5 60 15.3 99 99 SSW 18 30 29.8 1009 4 6.43736 0 0
2:35 am 02:35 Cloudy with Mist and Fog 60 15.6 60 15.5 99 99 S 16 26 29.81 1010 4 6.43736 0 0
2:55 am 02:55 Cloudy with Mist and Fog 60 15.8 60 15.5 98 98 SSW 15 24 29.81 1009 5 8.0467 0 0
3:15 am 03:15 Cloudy with Mist and Fog 61 16 60 15.7 98 98 S 12 19 29.8 1009 5 8.0467 0 0
3:35 am 03:35 Cloudy 62 16.4 61 15.9 97 97 S 12 19 29.79 1009 7 11.26538 0 0
3:55 am 03:55 Cloudy with Light Drizzle 62 16.5 61 16 97 97 S 12 19 29.78 1009 7 11.26538 0 0
4:15 am 04:15 Cloudy 62 16.5 61 16.1 98 98 SW 6 9 29.79 1009 7 11.26538 0 0
4:35 am 04:35 Cloudy with Rain 62 16.7 61 16 96 96 WNW 14 22 29.82 1010 7 11.26538 0.01 0.254
4:55 am 04:55 Cloudy 61 16 60 15.5 97 97 WNW 10 17 29.83 1010 7 11.26538 0.01 0.254
5:15 am 05:15 Cloudy 60 15.6 59 15.1 97 97 WNW 10 17 29.84 1011 7 11.26538 0 0
5:35 am 05:35 Cloudy 59 15.1 58 14.4 96 96 WNW 8 13 29.85 1011 10 16.0934 0 0
5:55 am 05:55 Partly Cloudy 57 14 57 13.7 98 98 WNW 9 15 29.86 1011 7 11.26538 0 0
6:15 am 06:15 Clear 57 14 52 10.9 82 82 WNW 16 26 29.88 1012 10 16.0934 0 0
6:35 am 06:35 Clear 54 12.2 46 7.7 74 74 WNW 22 35 29.91 1013 10 16.0934 0 0
6:55 am 06:55 Clear 52 11 43 5.9 71 71 WNW 21 33 29.93 1014 10 16.0934 0 0
7:15 am 07:15 Clear 51 10.4 41 5.1 70 70 WNW 18 30 29.96 1014 10 16.0934 0 0
7:35 am 07:35 Clear 49 9.6 41 4.9 73 73 WNW 15 24 29.96 1015 10 16.0934 0 0
7:55 am 07:55 Sunny 48 9.1 40 4.6 74 74 WNW 14 22 29.98 1015 10 16.0934 0 0
8:15 am 08:15 Sunny 48 9 40 4.3 73 73 WNW 12 19 29.98 1015 10 16.0934 0 0
8:35 am 08:35 Sunny 49 9.3 40 4.2 71 71 WNW 15 24 29.98 1015 10 16.0934 0 0
8:55 am 08:55 Sunny 51 10.5 39 3.7 63 63 WNW 20 31 29.97 1015 10 16.0934 0 0
9:15 am 09:15 Sunny 51 10.5 40 4.3 66 66 NW 24 39 29.97 1015 10 16.0934 0 0
9:35 am 09:35 Sunny 51 10.6 40 4.7 67 67 NW 26 43 29.99 1015 10 16.0934 0 0
9:55 am 09:55 Sunny 52 11.2 42 5.7 69 69 NW 26 43 29.98 1015 10 16.0934 0 0
10:15 am 10:15 Sunny 53 11.7 42 5.7 67 67 NW 29 46 29.99 1015 10 16.0934 0 0
10:35 am 10:35 Sunny 54 12.3 43 5.9 65 65 NNW 28 44 29.98 1015 10 16.0934 0 0
10:55 am 10:55 Sunny 55 12.6 41 5.1 61 61 NNW 35 56 29.98 1015 10 16.0934 0 0
11:15 am 11:15 Sunny 56 13.1 42 5.7 61 61 NW 35 56 29.98 1015 10 16.0934 0 0
11:35 am 11:35 Sunny 57 14.1 43 6.1 59 59 NNW 24 39 29.97 1015 10 16.0934 0 0
11:55 am 11:55 Sunny 58 14.3 42 5.8 57 57 NNW 30 48 29.99 1016 10 16.0934 0 0
12:15 pm 12:15 Sunny 59 15 44 6.6 57 57 NW 28 44 30 1016 10 16.0934 0 0
12:35 pm 12:35 Sunny 60 15.3 43 6.2 55 55 NW 26 43 30 1016 10 16.0934 0 0
12:55 pm 12:55 Sunny 61 16 43 6 52 52 NNW 25 41 30 1016 10 16.0934 0 0
1:15 pm 13:15 Sunny 61 16.2 43 5.9 51 51 NW 23 37 30 1016 10 16.0934 0 0
1:35 pm 13:35 Sunny 62 16.6 42 5.6 48 48 NNW 21 33 29.99 1016 10 16.0934 0 0
1:55 pm 13:55 Sunny 63 17.2 41 4.8 44 44 NNW 22 35 29.99 1015 10 16.0934 0 0
2:15 pm 14:15 Sunny 63 17.3 40 4.7 44 44 NNW 16 26 29.98 1015 10 16.0934 0 0
2:35 pm 14:35 Sunny 64 17.6 40 4.3 42 42 NW 22 35 29.97 1015 10 16.0934 0 0
2:55 pm 14:55 Sunny 64 18 39 4 40 40 NW 17 28 29.96 1015 10 16.0934 0 0
3:15 pm 15:15 Sunny 65 18.5 39 3.7 38 38 NNW 23 37 29.96 1014 10 16.0934 0 0
3:35 pm 15:35 Sunny 65 18.4 38 3.1 36 36 NW 16 26 29.96 1014 10 16.0934 0 0
3:55 pm 15:55 Sunny 65 18.2 36 2.1 34 34 NW 20 31 29.97 1015 10 16.0934 0 0
4:15 pm 16:15 Sunny 65 18.1 37 2.6 36 36 NW 16 26 29.96 1015 10 16.0934 0 0
4:35 pm 16:35 Sunny 65 18.6 37 2.6 35 35 NW 16 26 29.95 1014 10 16.0934 0 0
4:55 pm 16:55 Sunny 65 18.6 36 2.2 34 34 WNW 15 24 29.95 1014 10 16.0934 0 0
5:15 pm 17:15 Sunny 65 18.3 36 2.3 35 35 NNW 15 24 29.97 1015 10 16.0934 0 0
5:35 pm 17:35 Sunny 64 18 35 1.7 34 34 NW 17 28 29.96 1015 10 16.0934 0 0
5:55 pm 17:55 Sunny 64 17.5 36 2.1 36 36 NNW 13 20 29.96 1015 10 16.0934 0 0
6:15 pm 18:15 Sunny 63 17 35 1.6 36 36 NNW 12 19 29.98 1015 10 16.0934 0 0
6:35 pm 18:35 Sunny 61 16.2 37 2.5 40 40 NNW 8 13 29.99 1015 10 16.0934 0 0
6:55 pm 18:55 Sunny 59 15.1 38 3.1 45 45 NW 7 11 29.99 1016 10 16.0934 0 0
7:15 pm 19:15 Sunny 55 12.9 39 3.9 55 55 NW 7 11 30.02 1017 10 16.0934 0 0
7:35 pm 19:35 Clear 52 11.1 40 4.4 64 64 W 3 6 30.05 1018 10 16.0934 0 0
7:55 pm 19:55 Clear 51 10.4 40 4.6 68 68 W 5 7 30.06 1018 10 16.0934 0 0
8:15 pm 20:15 Clear 50 10 39 4 67 67 W 3 6 30.06 1018 10 16.0934 0 0
8:35 pm 20:35 Clear 49 9.5 39 4.1 69 69 NW 5 7 30.07 1018 10 16.0934 0 0
8:55 pm 20:55 Clear 46 7.7 40 4.4 80 80 SW 7 11 30.09 1019 10 16.0934 0 0
9:15 pm 21:15 Clear 46 7.7 39 4.1 78 78 W 6 9 30.09 1019 10 16.0934 0 0
9:35 pm 21:35 Clear 46 7.5 40 4.3 80 80 W 7 11 30.09 1019 10 16.0934 0 0
9:55 pm 21:55 Clear 45 7.1 39 4 81 81 WNW 7 11 30.11 1020 10 16.0934 0 0
10:15 pm 22:15 Clear 44 6.7 39 3.8 82 82 SE 3 6 30.12 1020 10 16.0934 0 0
10:35 pm 22:35 Clear 43 6.3 39 4 85 85 SSW 3 6 30.13 1020 10 16.0934 0 0
10:55 pm 22:55 Clear 43 6.1 39 3.7 85 85 Calm 30.14 1021 10 16.0934 0 0
11:15 pm 23:15 Clear 40 4.6 38 3.6 93 93 Calm 30.14 1021 10 16.0934 0 0
11:35 pm 23:35 Clear 40 4.5 38 3.5 93 93 Calm 30.14 1021 10 16.0934 0 0
11:55 pm 23:55 Clear 41 4.9 38 3.6 91 91 N 3 6 30.13 1020 10 16.0934 0 0

Powered by AerisWeather